METAR Formatted Surface Weather Observation
Issued by NWS

Home | Current Version | Previous Version | Text Only | Print | Product List | Glossary On
Versions: 1 2 3 4 5 6 7 8 9 10 11 12 13 14 15 16 17 18 19 20 21 22 23 24 25 26 27 28 29 30 31 32 33 34 35 36 37 38 39 40 41 42 43 44 45 46 47 48 49 50
707
SAUS43 KUNR 071801 COR
MTRD07
METAR KD07 071756Z AUTO 30024G33KT M15/M18 A3031 RMK AO1 PK WND
31035/1715 SLP333 T11501183 11150 21189 51018



USA.gov is the U.S. government's official web portal to all federal, state and local government web resources and services.